• In United Kingdom
  • List of Countries
  • For 7 days
  • Water Temperature
  • Satellite Maps
  • Weather Map
  • Weather Widgets
  • user-avatar
    Login

    Hourly Weather Shusha

    Today, 21 July, Saturday

    Time Temperature Precipitation Wind Pressure Humidity
    00:00 +21°C° 0 mm 2 mps 655 mmHg 80%
    01:00 +22°C° 0 mm 1 mps 655 mmHg 80%
    02:00 +21°C° 0 mm 1 mps 655 mmHg 81%
    03:00 +21°C° 0 mm 1 mps 655 mmHg 81%
    04:00 +22°C° 0 mm 1 mps 655 mmHg 79%
    05:00 +22°C° 0 mm 1 mps 656 mmHg 77%
    06:00 +22°C° 0 mm 1 mps 656 mmHg 75%
    07:00 +24°C° 0 mm 1 mps 657 mmHg 66%
    08:00 +25°C° 0 mm 2 mps 657 mmHg 58%
    09:00 +27°C° 0 mm 3 mps 657 mmHg 53%
    10:00 +28°C° 0.1 mm 3 mps 657 mmHg 50%
    11:00 +29°C° 0.1 mm 3 mps 658 mmHg 47%
    12:00 +29°C° 0.1 mm 4 mps 658 mmHg 44%
    13:00 +30°C° 0.1 mm 4 mps 658 mmHg 43%
    14:00 +30°C° 0.1 mm 4 mps 657 mmHg 42%
    15:00 +32°C° 0.1 mm 4 mps 657 mmHg 40%
    16:00 +30°C° 0.1 mm 4 mps 657 mmHg 43%
    17:00 +29°C° 0.1 mm 4 mps 657 mmHg 46%
    18:00 +28°C° 0.1 mm 4 mps 657 mmHg 48%
    19:00 +26°C° 0 mm 4 mps 657 mmHg 54%
    20:00 +24°C° 0 mm 3 mps 657 mmHg 60%
    21:00 +23°C° 0 mm 2 mps 657 mmHg 66%
    22:00 +21°C° 0 mm 2 mps 657 mmHg 68%
    23:00 +21°C° 0 mm 2 mps 657 mmHg 69%

    Tomorrow, 22 July, Sunday

    Time Temperature Precipitation Wind Pressure Humidity
    00:00 +20°C° 0 mm 2 mps 657 mmHg 71%
    01:00 +20°C° 0 mm 2 mps 657 mmHg 71%
    02:00 +21°C° 0 mm 1 mps 657 mmHg 72%
    03:00 +20°C° 0 mm 1 mps 657 mmHg 72%
    04:00 +21°C° 0 mm 1 mps 657 mmHg 71%
    05:00 +21°C° 0 mm 1 mps 657 mmHg 70%
    06:00 +22°C° 0 mm 1 mps 658 mmHg 68%
    07:00 +23°C° 0 mm 2 mps 658 mmHg 64%
    08:00 +23°C° 0 mm 2 mps 658 mmHg 59%
    09:00 +24°C° 0 mm 3 mps 658 mmHg 55%
    10:00 +25°C° 0 mm 3 mps 658 mmHg 51%
    11:00 +26°C° 0 mm 3 mps 658 mmHg 48%
    12:00 +28°C° 0 mm 4 mps 658 mmHg 44%
    13:00 +28°C° 0 mm 4 mps 658 mmHg 43%
    14:00 +28°C° 0 mm 4 mps 658 mmHg 42%
    15:00 +29°C° 0 mm 4 mps 657 mmHg 41%
    16:00 +28°C° 0 mm 4 mps 657 mmHg 43%
    17:00 +28°C° 0 mm 4 mps 657 mmHg 44%
    18:00 +27°C° 0 mm 4 mps 657 mmHg 45%
    19:00 +25°C° 0 mm 3 mps 657 mmHg 50%
    20:00 +24°C° 0 mm 2 mps 657 mmHg 56%
    21:00 +21°C° 0 mm 2 mps 656 mmHg 61%
    22:00 +20°C° 0 mm 2 mps 656 mmHg 63%
    23:00 +20°C° 0 mm 2 mps 656 mmHg 64%

    Day after tomorrow, 23 July, Monday

    Time Temperature Precipitation Wind Pressure Humidity
    00:00 +19°C° 0 mm 2 mps 656 mmHg 65%
    01:00 +19°C° 0 mm 2 mps 656 mmHg 66%
    02:00 +19°C° 0 mm 2 mps 656 mmHg 66%
    03:00 +18°C° 0 mm 2 mps 656 mmHg 66%
    04:00 +20°C° 0 mm 1 mps 656 mmHg 64%
    05:00 +20°C° 0 mm 1 mps 656 mmHg 62%
    06:00 +21°C° 0 mm 1 mps 656 mmHg 60%
    07:00 +21°C° 0 mm 2 mps 657 mmHg 54%
    08:00 +24°C° 0 mm 2 mps 657 mmHg 48%
    09:00 +26°C° 0 mm 2 mps 657 mmHg 42%
    10:00 +27°C° 0 mm 3 mps 657 mmHg 39%
    11:00 +28°C° 0 mm 3 mps 657 mmHg 37%
    12:00 +29°C° 0 mm 4 mps 657 mmHg 34%
    13:00 +30°C° 0 mm 4 mps 656 mmHg 33%
    14:00 +30°C° 0 mm 4 mps 656 mmHg 33%
    15:00 +32°C° 0 mm 4 mps 656 mmHg 32%
    16:00 +30°C° 0 mm 3 mps 656 mmHg 34%
    17:00 +29°C° 0 mm 3 mps 655 mmHg 36%
    18:00 +29°C° 0 mm 3 mps 655 mmHg 38%
    19:00 +27°C° 0 mm 2 mps 655 mmHg 43%
    20:00 +25°C° 0 mm 2 mps 656 mmHg 48%
    21:00 +23°C° 0 mm 1 mps 656 mmHg 53%
    22:00 +23°C° 0.1 mm 1 mps 656 mmHg 55%
    23:00 +21°C° 0.1 mm 2 mps 656 mmHg 57%

    24 July, Tuesday

    Time Temperature Precipitation Wind Pressure Humidity
    00:00 +21°C° 0.1 mm 2 mps 656 mmHg 59%
    01:00 +20°C° 0 mm 2 mps 656 mmHg 60%
    02:00 +20°C° 0 mm 2 mps 655 mmHg 60%
    03:00 +20°C° 0 mm 2 mps 655 mmHg 61%
    04:00 +20°C° 0 mm 2 mps 656 mmHg 59%
    05:00 +22°C° 0 mm 1 mps 656 mmHg 58%
    06:00 +22°C° 0 mm 1 mps 656 mmHg 56%
    07:00 +24°C° 0 mm 1 mps 657 mmHg 51%
    08:00 +26°C° 0 mm 2 mps 657 mmHg 45%
    09:00 +28°C° 0 mm 2 mps 658 mmHg 40%
    10:00 +29°C° 0 mm 3 mps 658 mmHg 37%
    11:00 +30°C° 0 mm 3 mps 658 mmHg 34%
    12:00 +31°C° 0 mm 3 mps 658 mmHg 31%
    13:00 +33°C° 0 mm 3 mps 657 mmHg 30%
    14:00 +33°C° 0 mm 3 mps 657 mmHg 30%
    15:00 +34°C° 0 mm 3 mps 657 mmHg 30%
    16:00 +33°C° 0 mm 3 mps 657 mmHg 31%
    17:00 +31°C° 0 mm 3 mps 657 mmHg 33%
    18:00 +31°C° 0 mm 3 mps 657 mmHg 35%
    19:00 +29°C° 0 mm 2 mps 657 mmHg 40%
    20:00 +27°C° 0 mm 2 mps 657 mmHg 46%
    21:00 +25°C° 0 mm 2 mps 657 mmHg 51%
    22:00 +24°C° 0 mm 2 mps 657 mmHg 51%
    23:00 +24°C° 0 mm 2 mps 657 mmHg 52%

    25 July, Wednesday

    Time Temperature Precipitation Wind Pressure Humidity
    00:00 +23°C° 0 mm 2 mps 657 mmHg 52%
    01:00 +23°C° 0 mm 2 mps 657 mmHg 52%
    02:00 +23°C° 0 mm 2 mps 657 mmHg 52%
    03:00 +21°C° 0 mm 2 mps 657 mmHg 52%
    04:00 +23°C° 0 mm 2 mps 657 mmHg 51%
    05:00 +23°C° 0 mm 2 mps 658 mmHg 50%
    06:00 +24°C° 0 mm 2 mps 658 mmHg 48%
    07:00 +26°C° 0 mm 2 mps 658 mmHg 44%
    08:00 +28°C° 0 mm 2 mps 659 mmHg 39%
    09:00 +30°C° 0 mm 2 mps 659 mmHg 34%
    10:00 +31°C° 0 mm 3 mps 659 mmHg 32%
    11:00 +33°C° 0 mm 3 mps 659 mmHg 30%
    12:00 +35°C° 0 mm 3 mps 659 mmHg 27%
    13:00 +35°C° 0 mm 4 mps 659 mmHg 27%
    14:00 +36°C° 0 mm 4 mps 659 mmHg 26%
    15:00 +36°C° 0 mm 4 mps 658 mmHg 25%
    16:00 +35°C° 0 mm 4 mps 658 mmHg 28%
    17:00 +34°C° 0 mm 4 mps 658 mmHg 30%
    18:00 +34°C° 0 mm 4 mps 658 mmHg 33%
    19:00 +30°C° 0 mm 3 mps 658 mmHg 37%
    20:00 +28°C° 0 mm 2 mps 658 mmHg 41%
    21:00 +26°C° 0 mm 2 mps 657 mmHg 46%
    22:00 +25°C° 0 mm 2 mps 657 mmHg 47%
    23:00 +25°C° 0 mm 2 mps 657 mmHg 49%

    26 July, Thursday

    Time Temperature Precipitation Wind Pressure Humidity
    00:00 +24°C° 0 mm 2 mps 657 mmHg 50%
    01:00 +24°C° 0 mm 2 mps 657 mmHg 51%
    02:00 +24°C° 0 mm 2 mps 657 mmHg 51%
    03:00 +23°C° 0 mm 2 mps 657 mmHg 52%
    04:00 +24°C° 0 mm 2 mps 657 mmHg 50%
    05:00 +24°C° 0 mm 1 mps 658 mmHg 49%
    06:00 +25°C° 0 mm 1 mps 658 mmHg 48%
    07:00 +26°C° 0 mm 2 mps 658 mmHg 43%
    08:00 +28°C° 0 mm 2 mps 659 mmHg 39%
    09:00 +30°C° 0 mm 2 mps 659 mmHg 35%
    10:00 +31°C° 0 mm 3 mps 659 mmHg 33%
    11:00 +34°C° 0 mm 3 mps 659 mmHg 31%
    12:00 +35°C° 0 mm 4 mps 659 mmHg 29%
    13:00 +35°C° 0 mm 4 mps 659 mmHg 29%
    14:00 +36°C° 0 mm 4 mps 659 mmHg 29%
    15:00 +36°C° 0 mm 4 mps 659 mmHg 28%
    16:00 +35°C° 0 mm 4 mps 658 mmHg 31%
    17:00 +34°C° 0 mm 4 mps 658 mmHg 33%
    18:00 +33°C° 0 mm 4 mps 658 mmHg 36%
    19:00 +30°C° 0 mm 3 mps 658 mmHg 41%
    20:00 +28°C° 0 mm 2 mps 658 mmHg 45%
    21:00 +25°C° 0 mm 1 mps 658 mmHg 50%
    22:00 +25°C° 0 mm 2 mps 658 mmHg 51%
    23:00 +24°C° 0 mm 2 mps 658 mmHg 52%
    Show more